Volver al catálogo

STARLINK-32363

ActivoComunicacionesVLEO
NORAD 61678·PAYLOAD·🇺🇸 United States

Lanzado Oct 26, 2024 desde Cape Canaveral Space Force Station

Loading…

Próximos Pases (próximas 24 horas)

TLE

ActualizadoSource: CelesTrak SupGP

Época: Sep 14, 2026, 22:31 UTC

1 61678C 24193T   26257.93868056  .00092443  00000+0  27286-2 0  2579
2 61678  53.1573 287.3990 0001346  99.1910 341.0103 15.34374676    14

Sigue STARLINK-32363 en tiempo real con AllMySat

Download on the App Store